ZL4VM-1 Weather Reports


Display with metric or nautical units.
time (UTC)temp
F
wind
direction
speed
MPH
gust
MPH
rain 1hr
in
rain 24hr
in
rain mn
in
humidity
%
barometer
mb
20260504045141 56 66 2.0 5.0 0.00 0.00 0.00 88 1030.1
20260504043341 55 90 2.0 5.0 0.00 0.00 0.00 87 1029.8
20260504041541 58 77 2.0 6.0 0.00 0.00 0.00 81 1029.8
20260504035741 58 80 2.0 8.0 0.00 0.00 0.00 82 1029.7
20260504034841 58 49 4.0 6.0 0.00 0.00 0.00 80 1029.7
20260504033941 59 70 2.0 9.0 0.00 0.00 0.00 78 1029.7
20260504033041 59 94 1.0 8.0 0.00 0.00 0.00 75 1029.4
20260504032141 61 65 2.0 6.0 0.00 0.00 0.00 73 1029.6
20260504030341 59 70 2.0 8.0 0.00 0.00 0.00 74 1029.3
20260504025441 60 90 3.0 8.0 0.00 0.00 0.00 76 1029.4
20260504024541 60 60 3.0 6.0 0.00 0.00 0.00 78 1029.4
20260504023640 58 68 2.0 9.0 0.00 0.00 0.00 78 1029.5
20260504021840 57 89 2.0 7.0 0.00 0.00 0.00 74 1029.4
20260504020941 58 34 4.0 8.0 0.00 0.00 0.00 71 1029.4
20260504020041 60 59 4.0 7.0 0.00 0.00 0.00 69 1029.6
20260504015140 60 79 4.0 7.0 0.00 0.00 0.00 70 1029.6
20260504014241 61 75 4.0 5.0 0.00 0.00 0.00 70 1029.8
20260504013341 60 66 4.0 8.0 0.00 0.00 0.00 74 1029.5
20260504012441 57 79 3.0 8.0 0.00 0.00 0.00 77 1029.9
20260504011540 57 87 4.0 8.0 0.00 0.00 0.00 76 1029.7
20260504004841 58 94 4.0 7.0 0.00 0.00 0.00 75 1030.1
20260504003941 59 86 4.0 7.0 0.00 0.00 0.00 78 1030.2
20260504003040 58 90 5.0 7.0 0.00 0.00 0.00 80 1030.3
20260504002141 58 70 2.0 8.0 0.00 0.00 0.00 80 1030.7
20260504001240 58 37 5.0 8.0 0.00 0.00 0.00 77 1030.7
20260504000340 59 39 2.0 5.0 0.00 0.00 0.00 78 1030.9
20260503235440 58 66 2.0 5.0 0.00 0.00 0.00 79 1031.2
20260503233641 58 76 2.0 6.0 0.00 0.00 0.00 74 1031.1
20260503232740 59 78 2.0 4.0 0.00 0.00 0.00 73 1031.3
20260503231841 60 82 2.0 4.0 0.00 0.00 0.00 70 1031.5
20260503230941 60 41 1.0 3.0 0.00 0.00 0.00 80 1031.5
20260503230041 57 90 1.0 4.0 0.00 0.00 0.00 81 1031.5
20260503225140 57 90 1.0 3.0 0.00 0.00 0.00 85 1031.5
20260503224240 55 94 1.0 3.0 0.00 0.00 0.00 88 1031.4
20260503222440 53 90 1.0 2.0 0.00 0.00 0.00 92 1031.7
20260503221540 53 90 0.0 1.0 0.00 0.00 0.00 92 1031.8
20260503220640 52 0 0.0 0.0 0.00 0.00 0.00 93 1031.6
20260503215740 52 90 0.0 1.0 0.00 0.00 0.00 93 1031.8
20260503214840 51 90 0.0 2.0 0.00 0.00 0.00 93 1032.0
20260503213940 51 90 0.0 2.0 0.00 0.00 0.00 93 1032.0
20260503213040 50 90 1.0 2.0 0.00 0.00 0.00 93 1031.9
20260503212140 50 90 1.0 2.0 0.00 0.00 0.00 93 1032.1
20260503211240 50 93 0.0 2.0 0.00 0.00 0.00 93 1031.9
20260503210341 50 225 0.0 2.0 0.00 0.00 0.00 94 1032.0
20260503205440 49 223 0.0 3.0 0.00 0.00 0.00 95 1032.0
20260503201840 48 225 1.0 3.0 0.00 0.00 0.00 97 1032.0
20260503200940 47 191 1.0 2.0 0.00 0.00 0.00 97 1031.9
20260503200040 48 90 0.0 2.0 0.00 0.00 0.00 97 1031.8
20260503195140 48 110 0.0 2.0 0.00 0.00 0.00 97 1031.6
20260503194240 48 225 0.0 2.0 0.00 0.00 0.00 97 1031.5
20260503193340 48 228 0.0 3.0 0.00 0.00 0.00 97 1031.7
20260503192440 48 225 2.0 4.0 0.00 0.00 0.00 97 1031.5
20260503185740 47 225 1.0 2.0 0.00 0.00 0.00 98 1031.4
20260503184840 47 225 0.0 2.0 0.00 0.00 0.00 98 1031.3
20260503183940 47 225 1.0 2.0 0.00 0.00 0.00 98 1031.5
20260503183040 47 225 0.0 2.0 0.00 0.00 0.00 98 1031.3
20260503182140 47 217 1.0 4.0 0.00 0.00 0.00 98 1031.2
20260503181240 47 233 2.0 3.0 0.00 0.00 0.00 97 1031.3
20260503174540 47 225 1.0 4.0 0.00 0.00 0.00 98 1031.4
20260503173640 47 248 2.0 4.0 0.00 0.00 0.00 97 1031.1
20260503172740 47 240 1.0 2.0 0.00 0.00 0.00 97 1031.4
20260503171840 48 225 1.0 3.0 0.00 0.00 0.00 97 1031.1
20260503170940 48 222 0.0 3.0 0.00 0.00 0.00 96 1031.0
20260503150340 51 147 0.0 2.0 0.00 0.00 0.00 84 1031.0
20260503072439 52 90 1.0 2.0 0.00 0.00 0.00 92 1031.5